Linden, NJ

1:02 AM EDT on August 24, 2017 (GMT -0400)
Linden

Weather History for KLDJ - December, 2012

Change the Weather History Date:

Tuesday, December 4, 2012

  Actual Average (KEWR) Record (KEWR)
Temperature  
Mean Temperature 57 °F -  
Max Temperature 68 °F 47 °F 75 °F (1998)
Min Temperature 46 °F 32 °F 9 °F (1940)
Degree Days  
Heating Degree Days 8    
Growing Degree Days 7 (Base 50)    
Moisture  
Dew Point 50 °F    
Average Humidity 84    
Maximum Humidity 94    
Minimum Humidity 62    
Precipitation  
Precipitation 0.02 in - - ()
Sea Level Pressure  
Sea Level Pressure 30.17 in    
Wind  
Wind Speed 0 mph (SE)    
Max Wind Speed 5 mph    
Max Gust Speed -    
Visibility 8 miles    
Events Rain    
Averages and records for this station are not official NWS values.
T = Trace of Precipitation, MM = Missing Value Source: NWS Daily Summary

Daily Weather History Graph

Daily Weather History Graph

Search for Another Location

Airport or City:

Trip Planner

Search our weather history database for the weather conditions in past years. The results will help you decide how hot, cold, wet, or windy it might be!

Date:

Astronomy

Dec. 04, 2012 Rise Set
Actual Time 7:04 AM EST 4:29 PM EST
Civil Twilight 6:34 AM EST 5:00 PM EST
Nautical Twilight 6:00 AM EST 5:34 PM EST
Astronomical Twilight 5:27 AM EST 6:07 PM EST
Moon 10:15 PM EST (12/4) 10:56 AM EST (12/4)
Length of Visible Light 10h 26m
Length of Day
9h 25m
Waning Gibbous, 69% of the Moon is Illuminated
Dec 4
Waning Gibbous
Dec 6
Last Quarter
Dec 13
New
Dec 20
First Quarter
Dec 28
Full

Hourly Weather History & Observations

Time (EST) Temp. Dew Point Humidity Pressure Visibility Wind Dir Wind Speed Gust Speed Precip Events Conditions
12:15 AM 48.2 °F 44.6 °F 87% 30.26 in 10.0 mi Calm Calm - N/A   Clear
12:35 AM 48.0 °F 44.4 °F 87% 30.27 in 10.0 mi Calm Calm - N/A   Scattered Clouds
1:15 AM 46.6 °F 43.9 °F 90% 30.27 in 7.0 mi Calm Calm - N/A   Overcast
1:35 AM 47.8 °F 44.6 °F 89% 30.26 in 10.0 mi Calm Calm - N/A   Mostly Cloudy
1:55 AM 46.2 °F 43.2 °F 89% 30.27 in 7.0 mi Calm Calm - N/A   Mostly Cloudy
2:15 AM 48.7 °F 45.0 °F 87% 30.26 in 10.0 mi Calm Calm - N/A   Overcast
2:35 AM 47.5 °F 44.4 °F 89% 30.27 in 7.0 mi Calm Calm - N/A   Mostly Cloudy
2:55 AM 48.7 °F 45.0 °F 87% 30.26 in 10.0 mi Calm Calm - N/A   Overcast
3:15 AM 49.1 °F 45.0 °F 86% 30.26 in 10.0 mi Calm Calm - N/A   Overcast
3:55 AM 49.6 °F 45.5 °F 86% 30.26 in 10.0 mi Calm Calm - N/A   Overcast
4:15 AM 50.0 °F 45.5 °F 85% 30.26 in 10.0 mi Calm Calm - N/A   Overcast
4:35 AM 50.0 °F 45.5 °F 85% 30.26 in 10.0 mi East 3.5 mph - N/A   Overcast
4:55 AM 50.0 °F 45.5 °F 85% 30.26 in 10.0 mi Calm Calm - N/A   Overcast
5:15 AM 50.0 °F 45.5 °F 85% 30.26 in 7.0 mi Calm Calm - N/A Rain Light Rain
5:35 AM 50.0 °F 45.7 °F 85% 30.26 in 7.0 mi Calm Calm - N/A   Light Drizzle
5:55 AM 50.0 °F 46.0 °F 86% 30.27 in 7.0 mi Calm Calm - N/A   Drizzle
6:15 AM 50.0 °F 46.6 °F 88% 30.27 in 5.0 mi Calm Calm - N/A   Drizzle
6:35 AM 49.6 °F 47.1 °F 91% 30.27 in 5.0 mi Calm Calm - 0.01 in   Drizzle
6:55 AM 50.0 °F 47.7 °F 92% 30.27 in 5.0 mi Calm Calm - 0.01 in   Overcast
7:15 AM 50.0 °F 47.7 °F 92% 30.27 in 5.0 mi Calm Calm - N/A   Drizzle
7:35 AM 50.4 °F 48.4 °F 93% 30.27 in 4.0 mi Calm Calm - N/A   Overcast
7:55 AM 50.2 °F 48.2 °F 93% 30.27 in 4.0 mi Calm Calm - N/A   Overcast
8:15 AM 50.4 °F 48.4 °F 93% 30.27 in 4.0 mi Calm Calm - N/A   Light Drizzle
8:55 AM 51.8 °F 50.0 °F 94% 30.26 in 3.0 mi Calm Calm - 0.01 in   Light Drizzle
9:15 AM 52.3 °F 50.5 °F 94% 30.27 in 3.0 mi Calm Calm - N/A   Overcast
9:35 AM 52.9 °F 51.1 °F 94% 30.27 in 3.0 mi Calm Calm - N/A   Overcast
9:55 AM 53.6 °F 51.8 °F 94% 30.27 in 2.5 mi Calm Calm - N/A   Overcast
10:15 AM 55.2 °F 52.7 °F 91% 30.26 in 3.0 mi Calm Calm - N/A   Scattered Clouds
10:35 AM 56.3 °F 53.2 °F 89% 30.25 in 3.0 mi Calm Calm - N/A   Clear
10:55 AM 58.1 °F 53.8 °F 86% 30.24 in 5.0 mi Calm Calm - N/A   Clear
11:15 AM 59.9 °F 54.1 °F 81% 30.24 in 5.0 mi Calm Calm - N/A   Haze
11:35 AM 60.3 °F 54.0 °F 80% 30.22 in 7.0 mi Calm Calm - N/A   Scattered Clouds
11:55 AM 61.7 °F 54.0 °F 76% 30.21 in 7.0 mi Calm Calm - N/A   Clear
12:15 PM 62.8 °F 54.3 °F 74% 30.19 in 10.0 mi Calm Calm - N/A   Clear
12:35 PM 64.4 °F 54.7 °F 71% 30.18 in 10.0 mi Calm Calm - N/A   Clear
12:55 PM 65.3 °F 54.7 °F 68% 30.17 in 10.0 mi SE 3.5 mph - N/A   Clear
1:15 PM 66.6 °F 54.7 °F 66% 30.16 in 10.0 mi Calm Calm - N/A   Clear
1:35 PM 67.3 °F 54.5 °F 63% 30.15 in 10.0 mi Calm Calm - N/A   Scattered Clouds
1:55 PM 67.8 °F 54.5 °F 62% 30.14 in 10.0 mi Calm Calm - N/A   Mostly Cloudy
2:15 PM 68.2 °F 54.5 °F 62% 30.14 in 10.0 mi SSE 3.5 mph - N/A   Mostly Cloudy
2:35 PM 67.8 °F 54.5 °F 62% 30.13 in 10.0 mi SE 3.5 mph - N/A   Scattered Clouds
2:55 PM 68.2 °F 54.5 °F 62% 30.13 in 10.0 mi Calm Calm - N/A   Scattered Clouds
3:15 PM 67.6 °F 54.5 °F 63% 30.12 in 10.0 mi SE 3.5 mph - N/A   Scattered Clouds
3:35 PM 66.2 °F 54.3 °F 65% 30.12 in 10.0 mi SE 4.6 mph - N/A   Scattered Clouds
3:55 PM 63.1 °F 53.6 °F 71% 30.12 in 10.0 mi SE 4.6 mph - N/A   Scattered Clouds
4:15 PM 61.7 °F 53.1 °F 73% 30.12 in 10.0 mi SE 3.5 mph - N/A   Scattered Clouds
4:35 PM 60.1 °F 52.7 °F 77% 30.12 in 10.0 mi ESE 3.5 mph - N/A   Clear
4:55 PM 59.2 °F 52.7 °F 79% 30.11 in 10.0 mi ESE 4.6 mph - N/A   Clear
5:15 PM 58.8 °F 52.5 °F 80% 30.11 in 10.0 mi SE 4.6 mph - N/A   Clear
5:55 PM 56.7 °F 52.0 °F 84% 30.10 in 10.0 mi Calm Calm - N/A   Clear
6:15 PM 56.3 °F 51.8 °F 85% 30.10 in 10.0 mi Calm Calm - N/A   Clear
6:35 PM 55.8 °F 52.0 °F 87% 30.09 in 10.0 mi SE 3.5 mph - N/A   Clear
6:55 PM 55.8 °F 52.2 °F 88% 30.09 in 10.0 mi Calm Calm - N/A   Clear
7:15 PM 55.6 °F 52.0 °F 88% 30.08 in 10.0 mi Calm Calm - N/A   Clear
7:35 PM 54.7 °F 51.3 °F 88% 30.07 in 7.0 mi Calm Calm - N/A   Clear
7:55 PM 53.8 °F 51.4 °F 92% 30.07 in 7.0 mi Calm Calm - N/A   Clear
8:15 PM 54.3 °F 51.8 °F 91% 30.06 in 7.0 mi Calm Calm - N/A   Clear
8:35 PM 53.2 °F 51.3 °F 93% 30.06 in 7.0 mi Calm Calm - N/A   Clear
8:55 PM 52.9 °F 50.7 °F 92% 30.05 in 7.0 mi Calm Calm - N/A   Clear
9:15 PM 52.9 °F 51.1 °F 94% 30.05 in 7.0 mi Calm Calm - N/A   Clear
9:35 PM 53.1 °F 51.3 °F 94% 30.04 in 7.0 mi Calm Calm - N/A   Clear
9:55 PM 53.2 °F 51.3 °F 93% 30.04 in 7.0 mi Calm Calm - N/A   Clear
10:15 PM 52.7 °F 50.5 °F 92% 30.02 in 7.0 mi Calm Calm - N/A   Clear
10:35 PM 55.4 °F 52.7 °F 91% 30.02 in 10.0 mi Calm Calm - N/A   Scattered Clouds
10:55 PM 57.0 °F 52.7 °F 85% 30.01 in 10.0 mi Calm Calm - N/A   Mostly Cloudy
11:15 PM 57.6 °F 52.7 °F 84% 30.00 in 10.0 mi Calm Calm - N/A   Mostly Cloudy
11:35 PM 57.2 °F 52.7 °F 85% 29.99 in 10.0 mi Calm Calm - N/A   Mostly Cloudy
11:55 PM 57.7 °F 52.7 °F 83% 29.98 in 10.0 mi Calm Calm - N/A   Mostly Cloudy